This demonstration page uses our WeatherBlox Daily Observations layout. Learn more.

Left ArrowRight Arrow

34.16533, -84.80231

Hourly Observations for March 31, 2022

Temp ( °F °C ) Dew Point ( °F °C ) Humidity (%) Winds ( mph kmh ) Pressure ( in mb ) Visibility ( mi km ) Precip ( " mm )
12:15 am 00:15 Cloudy 73 23 52 11 47 47 S 18 30 29.68 1005 10 16 0.00 0.00
12:35 am 00:35 Mostly Cloudy 73 23 52 11 47 47 S 15 24 29.68 1005 10 16 0.00 0.00
12:55 am 00:55 Mostly Cloudy 72 22 52 11 50 50 S 18 30 29.70 1006 10 16 0.00 0.00
1:15 am 01:15 Cloudy 72 22 54 12 53 53 S 12 19 29.70 1006 10 16 0.00 0.00
1:35 am 01:35 Mostly Cloudy with Light Rain 72 22 54 12 53 53 S 13 20 29.70 1006 10 16 0.00 0.00
1:55 am 01:55 Mostly Cloudy 72 22 55 13 57 57 S 15 24 29.69 1005 10 16 0.00 0.00
2:15 am 02:15 Cloudy with Light Rain 70 21 57 14 64 64 S 15 24 29.67 1005 9 14 0.00 0.00
2:35 am 02:35 Cloudy 68 20 57 14 69 69 S 15 24 29.67 1005 10 16 0.00 0.00
2:55 am 02:55 Cloudy with Light Rain 68 20 57 14 69 69 S 18 30 29.66 1004 5 8 0.01 0.25
3:15 am 03:15 Cloudy with Light Rain 64 18 57 14 78 78 S 16 26 29.65 1004 5 8 0.00 0.00
3:35 am 03:35 Cloudy with Light Rain 64 18 59 15 83 83 SSE 12 19 29.64 1004 5 8 0.00 0.00
3:55 am 03:55 Cloudy with Rain 63 17 59 15 88 88 SSE 13 20 29.63 1003 3 5 0.14 3.56
4:15 am 04:15 Mostly Cloudy with Rain 63 17 61 16 94 94 SSE 20 31 29.62 1003 2 3 0.00 0.00
4:35 am 04:35 Mostly Cloudy with Light Rain 63 17 61 16 94 94 S 18 30 29.64 1004 3 5 0.00 0.00
4:55 am 04:55 Cloudy with Rain 63 17 61 16 94 94 S 12 19 29.66 1004 3 5 0.20 5.08
5:15 am 05:15 Mostly Cloudy with Rain 63 17 61 16 94 94 SE 7 11 29.64 1004 3 5 0.00 0.00
5:35 am 05:35 Cloudy with Light Rain 63 17 61 16 94 94 Calm 29.65 1004 10 16 0.00 0.00
5:55 am 05:55 Cloudy 61 16 61 16 100 100 Calm 29.64 1004 10 16 0.12 3.05
6:15 am 06:15 Cloudy with Light Rain 63 17 61 16 94 94 Calm 29.65 1004 9 14 0.00 0.00
6:35 am 06:35 Cloudy with Mist and Fog 61 16 61 16 100 100 E 6 9 29.62 1003 4 6 0.00 0.00
6:55 am 06:55 Cloudy 61 16 61 16 100 100 Calm 29.63 1003 7 11 0.00 0.00
7:15 am 07:15 Mostly Cloudy 61 16 61 16 100 100 Calm 29.64 1004 9 14 0.00 0.00
7:35 am 07:35 Cloudy 61 16 61 16 100 100 WSW 8 13 29.66 1005 10 16 0.00 0.00
7:55 am 07:55 Mostly Cloudy 61 16 59 15 94 94 WSW 8 13 29.65 1004 10 16 0.00 0.00
8:15 am 08:15 Sunny 61 16 59 15 94 94 W 8 13 29.66 1005 10 16 0.00 0.00
8:35 am 08:35 Sunny 61 16 59 15 94 94 WSW 7 11 29.66 1005 10 16 0.00 0.00
8:55 am 08:55 Mostly Sunny 61 16 59 15 94 94 WSW 8 13 29.67 1005 10 16 0.01 0.25
9:15 am 09:15 Sunny 63 17 59 15 88 88 WSW 6 9 29.68 1005 10 16 0.00 0.00
9:35 am 09:35 Partly Cloudy 63 17 57 14 83 83 WSW 8 13 29.68 1005 10 16 0.00 0.00
9:55 am 09:55 Cloudy 63 17 55 13 77 77 WSW 9 15 29.69 1005 10 16 0.00 0.00
10:15 am 10:15 Mostly Cloudy 63 17 55 13 77 77 WSW 8 13 29.70 1006 10 16 0.00 0.00
10:35 am 10:35 Partly Cloudy 64 18 55 13 73 73 W 8 13 29.70 1006 10 16 0.00 0.00
10:55 am 10:55 Mostly Cloudy 64 18 54 12 68 68 WSW 7 11 29.71 1006 10 16 0.00 0.00
11:15 am 11:15 Mostly Cloudy 66 19 54 12 64 64 WSW 10 17 29.71 1006 10 16 0.00 0.00
11:35 am 11:35 Mostly Cloudy 68 20 54 12 60 60 WSW 10 17 29.70 1006 10 16 0.00 0.00
11:55 am 11:55 Mostly Cloudy 66 19 54 12 64 64 WSW 10 17 29.71 1006 10 16 0.00 0.00
12:15 pm 12:15 Cloudy 66 19 54 12 64 64 WSW 10 17 29.71 1006 10 16 0.00 0.00
12:35 pm 12:35 Mostly Cloudy 68 20 54 12 60 60 SW 9 15 29.70 1006 10 16 0.00 0.00
12:55 pm 12:55 Mostly Cloudy 68 20 52 11 56 56 WSW 8 13 29.69 1006 10 16 0.00 0.00
1:15 pm 13:15 Mostly Cloudy 70 21 52 11 53 53 WSW 12 19 29.69 1005 10 16 0.00 0.00
1:35 pm 13:35 Partly Cloudy 70 21 52 11 53 53 SW 10 17 29.68 1005 10 16 0.00 0.00
1:55 pm 13:55 Partly Cloudy 70 21 50 10 50 50 SW 14 22 29.68 1005 10 16 0.00 0.00
2:15 pm 14:15 Mostly Sunny 70 21 50 10 50 50 SSW 14 22 29.68 1005 10 16 0.00 0.00
2:35 pm 14:35 Mostly Cloudy 70 21 50 10 50 50 SW 9 15 29.68 1005 10 16 0.00 0.00
2:55 pm 14:55 Mostly Cloudy 70 21 54 12 57 57 W 20 31 29.68 1005 10 16 0.00 0.00
3:15 pm 15:15 Mostly Cloudy 70 21 54 12 57 57 W 14 22 29.68 1005 10 16 0.00 0.00
3:35 pm 15:35 Mostly Cloudy 68 20 52 11 56 56 WSW 15 24 29.68 1005 10 16 0.00 0.00
3:55 pm 15:55 Mostly Cloudy 70 21 54 12 57 57 W 14 22 29.69 1005 10 16 0.00 0.00
4:15 pm 16:15 Mostly Sunny 70 21 52 11 53 53 W 15 24 29.68 1005 10 16 0.00 0.00
4:35 pm 16:35 Mostly Sunny 68 20 48 9 49 49 W 17 28 29.68 1005 10 16 0.00 0.00
4:55 pm 16:55 Sunny 68 20 50 10 53 53 W 16 26 29.69 1006 10 16 0.00 0.00
5:15 pm 17:15 Sunny 66 19 48 9 52 52 W 16 26 29.71 1006 10 16 0.00 0.00
5:35 pm 17:35 Sunny 66 19 45 7 46 46 W 17 28 29.71 1006 10 16 0.00 0.00
5:55 pm 17:55 Sunny 66 19 45 7 46 46 W 14 22 29.72 1006 10 16 0.00 0.00
6:15 pm 18:15 Sunny 66 19 43 6 43 43 WSW 14 22 29.73 1007 10 16 0.00 0.00
6:35 pm 18:35 Sunny 64 18 45 7 49 49 W 12 19 29.73 1007 10 16 0.00 0.00
6:55 pm 18:55 Sunny 64 18 45 7 49 49 WSW 9 15 29.74 1007 10 16 0.00 0.00
7:15 pm 19:15 Sunny 63 17 41 5 45 45 W 8 13 29.75 1007 10 16 0.00 0.00
7:35 pm 19:35 Sunny 63 17 45 7 52 52 W 12 19 29.76 1008 10 16 0.00 0.00
7:55 pm 19:55 Sunny 61 16 45 7 55 55 W 6 9 29.76 1008 10 16 0.00 0.00
8:15 pm 20:15 Clear 59 15 45 7 59 59 W 5 7 29.78 1008 10 16 0.00 0.00
8:35 pm 20:35 Clear 59 15 45 7 59 59 W 5 7 29.79 1009 10 16 0.00 0.00
8:55 pm 20:55 Mostly Clear 57 14 45 7 63 63 W 7 11 29.81 1009 10 16 0.00 0.00
9:15 pm 21:15 Partly Cloudy 57 14 43 6 59 59 SW 6 9 29.81 1009 10 16 0.00 0.00
9:35 pm 21:35 Mostly Clear 57 14 43 6 59 59 Calm 29.82 1010 10 16 0.00 0.00
9:55 pm 21:55 Clear 55 13 43 6 63 63 Calm 29.83 1010 10 16 0.00 0.00
10:15 pm 22:15 Clear 55 13 43 6 63 63 Calm 29.84 1011 10 16 0.00 0.00
10:35 pm 22:35 Clear 54 12 43 6 67 67 Calm 29.85 1011 10 16 0.00 0.00
10:55 pm 22:55 Clear 54 12 43 6 67 67 SSW 3 6 29.86 1011 10 16 0.00 0.00
11:15 pm 23:15 Clear 54 12 43 6 67 67 Calm 29.87 1012 10 16 0.00 0.00
11:35 pm 23:35 Clear 52 11 43 6 72 72 Calm 29.88 1012 10 16 0.00 0.00
11:55 pm 23:55 Clear 52 11 43 6 72 72 Calm 29.88 1012 10 16 0.00 0.00

Powered by AerisWeather